Location: Unspecified
(33.2407°S, 0.0000°E)
Time: 10:50:51
(UTC+00:00)

Envisat - Visible Passes

Search period start: 19 May 2019 00:00
Search period end: 29 May 2019 00:00
Orbit: 764 x 766 km, 98.2° (Epoch: 19 May)

Date Brightness Start Highest point End Pass type
(mag) Time Alt. Az. Time Alt. Az. Time Alt. Az.
19 May 5.8 05:16:20 10° E 05:18:53 14° ESE 05:21:26 10° SE visible
19 May 3.3 19:11:46 52° NNE 19:11:46 52° NNE 19:15:42 10° N visible
20 May 3.7 06:15:38 10° NNE 06:20:37 58° ESE 06:25:41 10° S visible
20 May 4.0 18:34:37 27° ENE 18:34:37 27° ENE 18:38:06 10° NNE visible
20 May 5.3 20:14:49 20° WNW 20:14:49 20° WNW 20:16:54 10° NW visible
21 May 5.2 05:40:01 10° ENE 05:44:06 25° ESE 05:48:15 10° SSE visible
21 May 4.9 17:57:27 11° E 17:57:27 11° E 17:58:18 10° ENE visible
21 May 3.9 19:37:40 43° NW 19:37:40 43° NW 19:41:09 10° NNW visible
22 May 6.0 05:06:46 10° ESE 05:07:48 11° ESE 05:08:51 10° SE visible
22 May 3.5 19:00:30 44° NE 19:00:30 44° NE 19:04:20 10° N visible
22 May 6.0 20:40:42 10° W 20:40:42 10° W 20:40:47 10° W visible
23 May 4.2 06:04:37 10° NE 06:09:27 45° ESE 06:14:20 10° S visible
23 May 4.3 18:23:19 21° ENE 18:23:19 21° ENE 18:26:21 10° NE visible
23 May 4.9 20:03:32 25° WNW 20:03:32 25° WNW 20:06:05 10° NW visible
24 May 5.5 05:29:24 10° ENE 05:32:59 20° ESE 05:36:37 10° SSE visible
24 May 3.6 19:26:22 48° NNW 19:26:22 48° NNW 19:30:00 10° NNW visible
25 May 3.7 18:49:11 36° NE 18:49:11 36° NE 18:52:53 10° NNE visible
25 May 5.7 20:29:23 14° WNW 20:29:23 14° WNW 20:30:23 10° WNW visible
26 May 4.7 05:53:42 10° NE 05:58:17 35° ESE 06:02:55 10° S visible
26 May 4.6 18:12:00 16° ENE 18:12:00 16° ENE 18:14:23 10° NE visible
26 May 4.6 19:52:12 31° WNW 19:52:12 31° WNW 19:55:09 10° NW visible
27 May 5.7 05:18:59 10° E 05:21:53 15° ESE 05:24:48 10° SSE visible
27 May 3.5 19:15:02 50° N 19:15:02 50° N 19:18:46 10° N visible
28 May 3.5 06:18:38 10° NNE 06:23:40 64° ESE 06:28:46 10° S visible
28 May 3.9 18:37:50 29° ENE 18:37:50 29° ENE 18:41:20 10° NNE visible
28 May 5.4 20:18:03 18° WNW 20:18:03 18° WNW 20:19:45 10° WNW visible
